Weather History for Rhinelander, WI

Change the Weather History Date:

Monday, October 8, 2012

  Actual Average Record
Temperature  
Mean Temperature 44 °F 46 °F  
Max Temperature 54 °F 57 °F 82 °F (2010)
Min Temperature 33 °F 36 °F 22 °F (1989)
Degree Days  
Heating Degree Days 21 19  
Month to date heating degree days 157 140  
Since 1 July heating degree days 587 572  
Cooling Degree Days 0 0  
Month to date cooling degree days 0 0  
Year to date cooling degree days 373 259  
Moisture  
Dew Point 26 °F    
Average Humidity 49    
Maximum Humidity 56    
Minimum Humidity 42    
Precipitation  
Precipitation T in 0.11 in 1.56 in (2007)
Month to date precipitation T 0.94  
Year to date precipitation 24.36 26.02  
Snow  
Snow 0.00 in - 1.50 in (1932)
Month to date snowfall T  
Since 1 July snowfall T  
Since 1 September snowfall T  
Snow Depth 0.00 in    
Sea Level Pressure  
Sea Level Pressure 29.84 in    
Wind  
Wind Speed 11 mph (SSW)    
Max Wind Speed 25 mph    
Max Gust Speed 38 mph    
Visibility 10 miles    
Events Rain    
T = Trace of Precipitation, MM = Missing Value Source: NWS Daily Summary

Daily Weather History Graph

Daily Weather History Graph

Search for Another Location

Airport:

Trip Planner

Search our weather history database for the weather conditions in past years. The results will help you decide how hot, cold, wet, or windy it might be!

Date:

Astronomy

Oct. 08, 2012 Rise Set
Actual Time 7:05 AM CDT 6:24 PM CDT
Civil Twilight 6:36 AM CDT 6:53 PM CDT
Nautical Twilight 6:01 AM CDT 7:27 PM CDT
Astronomical Twilight 5:27 AM CDT 8:02 PM CDT
Moon No Moon Rise 2:31 PM CDT (10/8)
Length of Visible Light 12h 17m
Length of Day
11h 18m
Last Quarter, 46% of the Moon is Illuminated
Oct 8
Last Quarter
Oct 15
New
Oct 21
First Quarter
Oct 29
Full
Nov 6
Last Quarter

Hourly Weather History & Observations

Time (CDT) Temp. Windchill Dew Point Humidity Pressure Visibility Wind Dir Wind Speed Gust Speed Precip Events Conditions
12:53 AM 34.0 °F 28.0 °F 16.0 °F 48% 29.98 in 10.0 mi SSW 6.9 mph - N/A   Clear
1:53 AM 35.1 °F 29.3 °F 17.1 °F 48% 29.97 in 10.0 mi SSW 6.9 mph - N/A   Clear
2:53 AM 35.1 °F 27.9 °F 17.1 °F 48% 29.95 in 10.0 mi SSW 9.2 mph - N/A   Clear
3:53 AM 35.1 °F 27.9 °F 18.0 °F 50% 29.94 in 10.0 mi SSW 9.2 mph - N/A   Clear
4:53 AM 35.1 °F 27.4 °F 18.0 °F 50% 29.93 in 10.0 mi SSW 10.4 mph - N/A   Clear
5:53 AM 34.0 °F 27.2 °F 19.0 °F 54% 29.92 in 10.0 mi SSW 8.1 mph - N/A   Clear
6:53 AM 33.1 °F 27.7 °F 19.9 °F 59% 29.92 in 10.0 mi South 5.8 mph - N/A   Clear
7:53 AM 34.0 °F 28.0 °F 19.9 °F 56% 29.91 in 10.0 mi South 6.9 mph - N/A   Clear
8:53 AM 39.0 °F 31.8 °F 21.9 °F 50% 29.90 in 10.0 mi SSW 11.5 mph - N/A   Partly Cloudy
9:53 AM 41.0 °F 33.1 °F 24.1 °F 51% 29.89 in 10.0 mi SSW 15.0 mph 20.7 mph N/A   Scattered Clouds
10:53 AM 46.0 °F 41.0 °F 26.1 °F 46% 29.86 in 10.0 mi South 10.4 mph 20.7 mph N/A   Overcast
11:53 AM 48.9 °F - 28.0 °F 44% 29.85 in 10.0 mi South 15.0 mph 23.0 mph N/A   Mostly Cloudy
12:53 PM 50.0 °F - 28.0 °F 43% 29.83 in 10.0 mi SSW 13.8 mph 24.2 mph N/A   Overcast
1:53 PM 48.9 °F - 28.9 °F 46% 29.79 in 10.0 mi South 11.5 mph 21.9 mph N/A   Overcast
2:53 PM 51.1 °F - 30.9 °F 46% 29.77 in 10.0 mi South 13.8 mph 23.0 mph N/A   Overcast
3:53 PM 51.1 °F - 32.0 °F 48% 29.74 in 10.0 mi South 11.5 mph 20.7 mph N/A   Overcast
5:53 PM 53.1 °F - 32.0 °F 45% 29.72 in 10.0 mi South 12.7 mph 24.2 mph N/A   Overcast
6:53 PM 51.1 °F - 37.0 °F 59% 29.72 in 10.0 mi SSW 13.8 mph 20.7 mph 0.00 in Rain Light Rain
7:53 PM 53.1 °F - 34.0 °F 48% 29.71 in 10.0 mi South 12.7 mph 20.7 mph 0.00 in   Overcast
9:53 PM 54.0 °F - 32.0 °F 43% 29.69 in 10.0 mi South 15.0 mph 25.3 mph N/A   Overcast
10:53 PM 53.1 °F - 33.1 °F 47% 29.69 in 10.0 mi SW 15.0 mph 21.9 mph 0.00 in   Overcast
11:53 PM 52.0 °F - 35.1 °F 53% 29.69 in 10.0 mi SSW 9.2 mph 18.4 mph 0.00 in Rain Light Rain